Location: Franzen
(48.6167°N, 15.3833°E)
Time: 18:36:39
(UTC+00:00)

A-11 Canister half - Pass Details

Date: 29 July 2021
Orbit: 1515 x 1685 km, 47.2° (Epoch: 19 September)

Event Time Altitude Azimuth Distance (km) Brightness Sun altitude
Rises 20:03:33 0° 273° (W) 4,875 12.4 -11.6°
Reaches altitude 10° 20:06:39 10° 273° (W) 3,905 11.8 -12.0°
Maximum altitude 20:16:45 82° 188° (S) 1,699 9.1 -13.1°
Drops below altitude 10° 20:26:57 10° 103° (ESE) 3,946 10.7 -14.2°
Enters shadow 20:28:06 - 103° (ESE) 4,305 10.9 -14.3°
Sets 20:30:06 0° 103° (ESE) 4,928 - -14.5°
